SVFLIR Weather Reports


Display with metric or nautical units.
time (UTC)temp
F
wind
direction
speed
MPH
gust
MPH
rain 1hr
in
rain 24hr
in
rain mn
in
humidity
%
barometer
mb
20200226153110 47 102 3.0 1.0 0.00 0.00 0.00
20200226152610 45 4 0.0 3.0 0.00 0.00 0.00
20200226151107 40 288 2.0 1.0 0.00 0.00 0.00
20200226145604 37 270 0.0 2.0 0.00 0.00 0.00
20200226144101 36 285 3.0 3.0 0.00 0.00 0.00
20200226143600 39 272 3.0 5.0 0.00 0.00 0.00
20200226143059 39 340 2.0 5.0 0.00 0.00 0.00
20200226142558 38 348 1.0 5.0 0.00 0.00 0.00
20200226142057 38 357 4.0 7.0 0.00 0.00 0.00
20200226141055 35 36 4.0 3.0 0.00 0.00 0.00
20200226140053 35 336 0.0 3.0 0.00 0.00 0.00
20200226135552 33 25 3.0 3.0 0.00 0.00 0.00
20200226135051 34 329 2.0 6.0 0.00 0.00 0.00
20200226134049 35 33 6.0 8.0 0.00 0.00 0.00
20200226133548 35 28 7.0 7.0 0.00 0.00 0.00
20200226131544 36 40 9.0 10.0 0.00 0.00 0.00
20200226131043 36 39 9.0 9.0 0.00 0.00 0.00
20200226130542 37 53 8.0 10.0 0.00 0.00 0.00
20200226125039 37 33 11.0 10.0 0.00 0.00 0.00
20200226124538 36 21 10.0 9.0 0.00 0.00 0.00
20200226124038 34 33 8.0 8.0 0.00 0.00 0.00
20200226123035 32 43 5.0 7.0 0.00 0.00 0.00
20200226122534 33 46 4.0 9.0 0.00 0.00 0.00
20200226122035 35 26 6.0 9.0 0.00 0.00 0.00
20200226121535 36 46 8.0 9.0 0.00 0.00 0.00
20200226120530 36 35 3.0 6.0 0.00 0.00 0.00
20200226120030 30 73 5.0 8.0 0.00 0.00 0.00
20200226115529 32 73 5.0 8.0 0.00 0.00 0.00
20200226115028 31 71 5.0 8.0 0.00 0.00 0.00
20200226114526 35 70 5.0 9.0 0.00 0.00 0.00
20200226114025 34 54 8.0 8.0 0.00 0.00 0.00
20200226113525 33 57 6.0 9.0 0.00 0.00 0.00
20200226113024 34 59 7.0 8.0 0.00 0.00 0.00
20200226111521 34 54 8.0 10.0 0.00 0.00 0.00
20200226110519 32 57 9.0 6.0 0.00 0.00 0.00
20200226105516 33 54 3.0 4.0 0.00 0.00 0.00
20200226105016 33 358 3.0 3.0 0.00 0.00 0.00
20200226103513 35 338 2.0 2.0 0.00 0.00 0.00
20200226103012 35 75 0.0 6.0 0.00 0.00 0.00
20200226102511 37 56 2.0 6.0 0.00 0.00 0.00
20200226101510 37 80 6.0 7.0 0.00 0.00 0.00
20200226101008 36 57 6.0 7.0 0.00 0.00 0.00
20200226100006 38 61 7.0 8.0 0.00 0.00 0.00
20200226095505 38 46 6.0 8.0 0.00 0.00 0.00
20200226095004 38 39 8.0 8.0 0.00 0.00 0.00
20200226094503 39 61 7.0 8.0 0.00 0.00 0.00
20200226094002 37 42 7.0 8.0 0.00 0.00 0.00
20200226093501 37 57 8.0 8.0 0.00 0.00 0.00
20200226093000 36 67 7.0 7.0 0.00 0.00 0.00
20200226091958 36 70 4.0 7.0 0.00 0.00 0.00
20200226091457 38 71 5.0 6.0 0.00 0.00 0.00
20200226090956 38 52 6.0 6.0 0.00 0.00 0.00
20200226084952 35 23 7.0 7.0 0.00 0.00 0.00
20200226083950 35 47 6.0 7.0 0.00 0.00 0.00
20200226083449 36 37 4.0 10.0 0.00 0.00 0.00
20200226082949 37 32 7.0 11.0 0.00 0.00 0.00
20200226081946 38 45 7.0 10.0 0.00 0.00 0.00
20200226081445 37 32 8.0 9.0 0.00 0.00 0.00
20200226075942 36 70 8.0 9.0 0.00 0.00 0.00
20200226075441 37 53 8.0 10.0 0.00 0.00 0.00
20200226074940 37 56 8.0 9.0 0.00 0.00 0.00
20200226074439 27 39 8.0 9.0 0.00 0.00 0.00
20200226073437 32 23 4.0 5.0 0.00 0.00 0.00
20200226072936 33 19 4.0 6.0 0.00 0.00 0.00
20200226072435 34 42 4.0 6.0 0.00 0.00 0.00
20200226071935 37 32 5.0 6.0 0.00 0.00 0.00
20200226071434 37 50 5.0 6.0 0.00 0.00 0.00
20200226070932 39 60 5.0 6.0 0.00 0.00 0.00
20200226070431 40 75 5.0 7.0 0.00 0.00 0.00
20200226065930 41 70 5.0 9.0 0.00 0.00 0.00
20200226065430 41 70 7.0 9.0 0.00 0.00 0.00
20200226064934 41 74 8.0 9.0 0.00 0.00 0.00
20200226064427 36 67 7.0 9.0 0.00 0.00 0.00
20200226063926 33 56 6.0 8.0 0.00 0.00 0.00
20200226063426 33 88 7.0 3.0 0.00 0.00 0.00
20200226062925 34 295 0.0 0.0 0.00 0.00 0.00
20200226062424 37 295 0.0 0.0 0.00 0.00 0.00
20200226061922 35 295 0.0 0.0 0.00 0.00 0.00
20200226061422 34 295 0.0 0.0 0.00 0.00 0.00
20200226055919 38 298 0.0 0.0 0.00 0.00 0.00
20200226055418 37 42 0.0 2.0 0.00 0.00 0.00
20200226054917 36 42 0.0 2.0 0.00 0.00 0.00
20200226054416 39 14 2.0 5.0 0.00 0.00 0.00
20200226053915 39 9 3.0 5.0 0.00 0.00 0.00
20200226051911 43 21 7.0 9.0 0.00 0.00 0.00
20200226051410 42 11 8.0 10.0 0.00 0.00 0.00
20200226050909 41 15 7.0 9.0 0.00 0.00 0.00
20200226050408 43 7 7.0 11.0 0.00 0.00 0.00
20200226045406 44 12 8.0 9.0 0.00 0.00 0.00
20200226044905 43 1 8.0 9.0 0.00 0.00 0.00
20200226043903 46 50 5.0 10.0 0.00 0.00 0.00
20200226043402 47 1 8.0 10.0 0.00 0.00 0.00
20200226041859 49 16 6.0 9.0 0.00 0.00 0.00
20200226041358 51 19 9.0 12.0 0.00 0.00 0.00
20200226040356 48 22 8.0 11.0 0.00 0.00 0.00
20200226032848 47 70 7.0 11.0 0.00 0.00 0.00
20200226032347 45 50 6.0 9.0 0.00 0.00 0.00
20200226031846 46 33 7.0 10.0 0.00 0.00 0.00
20200226025341 50 74 9.0 12.0 0.00 0.00 0.00
20200226023337 50 67 7.0 8.0 0.00 0.00 0.00
20200226022335 50 92 5.0 8.0 0.00 0.00 0.00
20200226021334 48 63 8.0 9.0 0.00 0.00 0.00
20200226020832 47 63 7.0 9.0 0.00 0.00 0.00
20200226020331 50 61 7.0 7.0 0.00 0.00 0.00
20200226015831 44 56 6.0 9.0 0.00 0.00 0.00
20200226014327 54 19 7.0 11.0 0.00 0.00 0.00
20200226013826 48 37 11.0 13.0 0.00 0.00 0.00
20200226012324 52 40 12.0 16.0 0.00 0.00 0.00
20200226010821 54 7 11.0 20.0 0.00 0.00 0.00
20200226010320 53 25 12.0 20.0 0.00 0.00 0.00
20200226005318 54 26 11.0 18.0 0.00 0.00 0.00
20200226001310 58 4 10.0 22.0 0.00 0.00 0.00
20200226000809 56 15 15.0 22.0 0.00 0.00 0.00
20200226000309 59 11 12.0 18.0 0.00 0.00 0.00
20200225233803 59 66 18.0 23.0 0.00 0.00 0.00
20200225233302 60 39 17.0 23.0 0.00 0.00 0.00
20200225232801 60 32 15.0 20.0 0.00 0.00 0.00
20200225232300 60 57 13.0 25.0 0.00 0.00 0.00
20200225230757 60 25 14.0 20.0 0.00 0.00 0.00
20200225230256 60 50 16.0 23.0 0.00 0.00 0.00
20200225225755 61 42 17.0 18.0 0.00 0.00 0.00
20200225224252 61 18 17.0 23.0 0.00 0.00 0.00
20200225223250 61 37 14.0 22.0 0.00 0.00 0.00
20200225221246 61 59 10.0 23.0 0.00 0.00 0.00
20200225214240 60 73 14.0 17.0 0.00 0.00 0.00
20200225213740 59 16 12.0 17.0 0.00 0.00 0.00
20200225213238 61 57 15.0 19.0 0.00 0.00 0.00
20200225212236 61 8 17.0 19.0 0.00 0.00 0.00
20200225211736 61 52 13.0 20.0 0.00 0.00 0.00
20200225210232 60 45 9.0 21.0 0.00 0.00 0.00
20200225204228 60 29 16.0 18.0 0.00 0.00 0.00
20200225203227 60 28 8.0 22.0 0.00 0.00 0.00
20200225202726 60 29 14.0 17.0 0.00 0.00 0.00
20200225182201 58 42 12.0 20.0 0.00 0.00 0.00
20200225173151 55 30 10.0 20.0 0.00 0.00 0.00
20200225172650 57 75 16.0 18.0 0.00 0.00 0.00